TimeMDT,TemperatureF,Dew PointF,Humidity,Sea Level PressureIn,VisibilityMPH,Wind Direction,Wind SpeedMPH,Gust SpeedMPH,PrecipitationIn,Events,Conditions,WindDirDegrees,DateUTC
12:54 AM,53.1,45.0,74,29.91,10.0,ESE,5.8,-,N/A,,Clear,110,2012-06-04 06:54:00
1:54 AM,51.1,44.1,77,29.90,10.0,SE,8.1,-,N/A,,Clear,130,2012-06-04 07:54:00
2:54 AM,50.0,43.0,77,29.90,10.0,South,4.6,-,N/A,,Clear,170,2012-06-04 08:54:00
3:54 AM,48.0,43.0,83,29.89,10.0,ESE,9.2,-,N/A,,Clear,120,2012-06-04 09:54:00
4:54 AM,48.0,44.1,86,29.88,10.0,Calm,Calm,-,N/A,,Clear,0,2012-06-04 10:54:00
5:54 AM,48.0,45.0,89,29.90,10.0,Calm,Calm,-,N/A,,Clear,0,2012-06-04 11:54:00
6:54 AM,52.0,48.0,86,29.88,10.0,Calm,Calm,-,N/A,,Clear,0,2012-06-04 12:54:00
7:54 AM,57.0,46.9,69,29.88,10.0,Calm,Calm,-,N/A,,Clear,0,2012-06-04 13:54:00
8:54 AM,57.9,50.0,75,29.91,10.0,WNW,5.8,-,N/A,,Clear,290,2012-06-04 14:54:00
9:54 AM,60.1,52.0,75,29.93,10.0,SW,6.9,-,N/A,,Clear,220,2012-06-04 15:54:00
10:54 AM,61.0,53.1,75,29.88,10.0,NE,5.8,-,N/A,,Scattered Clouds,50,2012-06-04 16:54:00
11:54 AM,64.9,54.0,68,29.88,10.0,Calm,Calm,-,N/A,,Clear,0,2012-06-04 17:54:00
12:54 PM,69.1,55.0,61,29.87,10.0,North,5.8,-,N/A,,Clear,360,2012-06-04 18:54:00
1:54 PM,72.0,55.9,57,29.83,10.0,NE,4.6,-,N/A,,Clear,50,2012-06-04 19:54:00
2:54 PM,75.9,55.9,50,29.80,10.0,East,12.7,-,N/A,,Clear,100,2012-06-04 20:54:00
3:54 PM,77.0,57.0,50,29.78,10.0,ENE,13.8,-,N/A,,Clear,70,2012-06-04 21:54:00
4:54 PM,75.9,55.9,50,29.74,10.0,East,20.7,28.8,N/A,,Clear,100,2012-06-04 22:54:00
5:54 PM,75.9,57.0,52,29.71,10.0,East,19.6,24.2,N/A,,Clear,100,2012-06-04 23:54:00
6:54 PM,73.0,57.0,57,29.68,10.0,ESE,13.8,21.9,N/A,,Clear,110,2012-06-05 00:54:00
7:54 PM,73.0,59.0,61,29.64,10.0,ESE,17.3,24.2,N/A,,Clear,110,2012-06-05 01:54:00
8:54 PM,73.0,55.9,55,29.63,10.0,ESE,21.9,29.9,N/A,,Clear,120,2012-06-05 02:54:00
9:54 PM,73.0,48.9,42,29.62,10.0,ESE,20.7,34.5,N/A,,Clear,120,2012-06-05 03:54:00
11:54 PM,68.0,48.9,50,29.56,10.0,East,15.0,-,N/A,,Clear,100,2012-06-05 05:54:00